SWR92 LSZH-SBGR

Flight info

Callsign SWR92
Flight time N/A
Altitude 31000
Route VEBIT T50 ROTOS Z669 ULMES DCT VADAR DCT NINTU/N0488F330 DCT MEBAK DCT REPSI DCT LERGA DCT MINSO DCT TIVLI DCT SURCO DCT ZAR35 DCT MOLIN DCT ORTOP DCT ERMED DCT TERTO DCT ANARU/N0488F350 DCT LIMAL/N0493F340 N873 IPERA UN873 POMAT/N0492F360 UN873 FEMUR DCT LIXAM UZ72 TOGUN/N0487F380 UZ72 VUKUB UZ80 ISNEM UZ61 REDAD UZ21 VUNOX
Aircraft B77W/H-SDE1E2E3FGHIJ2J3J4J5M1RWXY/LB1D1

Departure

Time N/A
Airport Zürich Airport (LSZH)

Arrival

Time 2026-04-30 20:06
Airport São Paulo/Guarulhos–Governor André Franco Montoro International Airport (SBGR)
Time Latitude Longitude Altitude Speed Heading
2026-04-30 18:21 -12.25932 -39.88642 33955 ft 504 kts 208°
2026-04-30 18:21 -12.31987 -39.92265 33965 ft 504 kts 208°
2026-04-30 18:22 -12.38045 -39.95891 33966 ft 504 kts 208°
2026-04-30 18:22 -12.46922 -40.01208 33966 ft 504 kts 208°
2026-04-30 18:23 -12.52940 -40.04815 33964 ft 504 kts 208°
2026-04-30 18:23 -12.58997 -40.08448 33968 ft 505 kts 208°
2026-04-30 18:24 -12.68087 -40.13902 33966 ft 505 kts 208°
2026-04-30 18:25 -12.74149 -40.17543 33976 ft 505 kts 208°
2026-04-30 18:25 -12.83242 -40.23008 33978 ft 505 kts 208°
2026-04-30 18:26 -12.92338 -40.28479 33972 ft 505 kts 208°
2026-04-30 18:27 -13.01415 -40.33945 33984 ft 505 kts 208°
2026-04-30 18:28 -13.10515 -40.39427 33982 ft 505 kts 208°
2026-04-30 18:28 -13.19611 -40.44912 33994 ft 506 kts 208°
2026-04-30 18:29 -13.31743 -40.52238 33993 ft 506 kts 208°
2026-04-30 18:30 -13.43885 -40.59580 33988 ft 506 kts 208°
2026-04-30 18:31 -13.52943 -40.65062 33993 ft 506 kts 208°
2026-04-30 18:32 -13.62076 -40.70595 33984 ft 506 kts 208°
2026-04-30 18:33 -13.71133 -40.76087 33986 ft 506 kts 208°
2026-04-30 18:33 -13.80237 -40.81611 33979 ft 506 kts 208°
2026-04-30 18:34 -13.89329 -40.87134 33970 ft 506 kts 208°
2026-04-30 18:35 -13.95392 -40.90821 33982 ft 506 kts 208°
2026-04-30 18:35 -14.01443 -40.94502 33983 ft 506 kts 208°
2026-04-30 18:36 -14.10505 -41.00021 33977 ft 506 kts 208°
2026-04-30 18:37 -14.19404 -41.05445 33988 ft 506 kts 208°
2026-04-30 18:37 -14.25461 -41.09139 33980 ft 506 kts 208°
2026-04-30 18:38 -14.31524 -41.12841 33983 ft 506 kts 208°
2026-04-30 18:38 -14.37585 -41.16542 33986 ft 506 kts 208°
2026-04-30 18:39 -14.43645 -41.20246 33991 ft 506 kts 208°
2026-04-30 18:39 -14.49706 -41.23952 33987 ft 506 kts 208°
2026-04-30 18:40 -14.55762 -41.27657 33990 ft 506 kts 208°
2026-04-30 18:40 -14.61822 -41.31368 33991 ft 506 kts 209°
2026-04-30 18:41 -14.67875 -41.35077 33989 ft 506 kts 209°
2026-04-30 18:41 -14.73922 -41.38785 33992 ft 506 kts 208°
2026-04-30 18:42 -14.79974 -41.42498 34001 ft 506 kts 208°
2026-04-30 18:42 -14.89003 -41.48042 34008 ft 505 kts 209°
2026-04-30 18:45 -15.22211 -41.68480 34021 ft 505 kts 209°
2026-04-30 18:46 -15.28247 -41.72203 34015 ft 505 kts 209°
2026-04-30 18:46 -15.34287 -41.75931 34021 ft 505 kts 209°
2026-04-30 18:47 -15.40313 -41.79653 34020 ft 504 kts 209°
2026-04-30 18:47 -15.46338 -41.83376 34019 ft 504 kts 209°
2026-04-30 18:48 -15.52346 -41.87092 34015 ft 503 kts 208°
2026-04-30 18:48 -15.58354 -41.90811 34023 ft 502 kts 209°
2026-04-30 18:49 -15.64354 -41.94527 34019 ft 502 kts 209°
2026-04-30 18:49 -15.70347 -41.98241 34020 ft 502 kts 209°
2026-04-30 18:50 -15.76145 -42.01837 34017 ft 502 kts 209°
2026-04-30 18:50 -15.82139 -42.05557 34018 ft 502 kts 209°
2026-04-30 18:51 -15.88126 -42.09276 34019 ft 502 kts 210°
2026-04-30 18:51 -15.94117 -42.12999 34018 ft 502 kts 209°
2026-04-30 18:52 -16.00095 -42.16717 34011 ft 502 kts 209°
2026-04-30 18:52 -16.06081 -42.20443 34012 ft 501 kts 210°
2026-04-30 18:53 -16.12058 -42.24167 34012 ft 501 kts 209°
2026-04-30 18:53 -16.18174 -42.27510 34000 ft 499 kts 200°
2026-04-30 18:54 -16.24727 -42.30014 34008 ft 498 kts 198°
2026-04-30 18:54 -16.31206 -42.32433 34009 ft 498 kts 199°
2026-04-30 18:55 -16.37707 -42.34916 34003 ft 497 kts 199°
2026-04-30 18:55 -16.47436 -42.38671 34000 ft 497 kts 200°
2026-04-30 18:56 -16.57163 -42.42423 34004 ft 496 kts 199°
2026-04-30 18:57 -16.65783 -42.45721 34015 ft 495 kts 199°
2026-04-30 18:57 -16.72258 -42.48210 34008 ft 496 kts 199°
2026-04-30 18:58 -16.81970 -42.51956 34003 ft 497 kts 200°
2026-04-30 18:59 -16.91688 -42.55707 34005 ft 497 kts 199°
2026-04-30 19:00 -17.04641 -42.60710 34011 ft 497 kts 200°
2026-04-30 19:01 -17.17605 -42.65726 34015 ft 497 kts 200°
2026-04-30 19:02 -17.27304 -42.69483 34016 ft 495 kts 200°
2026-04-30 19:03 -17.40191 -42.74483 34027 ft 494 kts 200°
2026-04-30 19:04 -17.52327 -42.81113 34029 ft 495 kts 217°
2026-04-30 19:05 -17.63078 -42.90153 34025 ft 495 kts 218°
2026-04-30 19:06 -17.73819 -42.99132 34029 ft 493 kts 218°
2026-04-30 19:06 -17.81681 -43.05684 34030 ft 493 kts 218°
2026-04-30 19:07 -17.89726 -43.12401 34039 ft 492 kts 218°
2026-04-30 19:08 -18.00391 -43.21319 34040 ft 492 kts 218°
2026-04-30 19:09 -18.08427 -43.28049 34044 ft 492 kts 218°
2026-04-30 19:09 -18.13773 -43.32531 34045 ft 492 kts 218°
2026-04-30 19:10 -18.24552 -43.41385 34055 ft 491 kts 214°
2026-04-30 19:11 -18.33547 -43.46591 34050 ft 492 kts 208°
2026-04-30 19:12 -18.39605 -43.49965 34051 ft 493 kts 208°
2026-04-30 19:12 -18.45646 -43.53387 34051 ft 493 kts 209°
2026-04-30 19:13 -18.57721 -43.60232 34053 ft 493 kts 208°
2026-04-30 19:14 -18.63716 -43.63629 34047 ft 493 kts 208°
2026-04-30 19:14 -18.69797 -43.67078 34048 ft 492 kts 209°
2026-04-30 19:15 -18.75785 -43.70479 34042 ft 492 kts 209°
2026-04-30 19:15 -18.84819 -43.75615 34042 ft 491 kts 209°
2026-04-30 19:16 -18.90836 -43.79040 34044 ft 491 kts 209°
2026-04-30 19:17 -18.99858 -43.84179 34032 ft 491 kts 209°
2026-04-30 19:17 -19.08869 -43.89319 34034 ft 491 kts 209°
2026-04-30 19:18 -19.17881 -43.94466 34028 ft 491 kts 209°
2026-04-30 19:19 -19.23886 -43.97898 34031 ft 490 kts 209°
2026-04-30 19:19 -19.32693 -44.02938 34039 ft 489 kts 209°
2026-04-30 19:20 -19.38680 -44.06368 34021 ft 489 kts 209°
2026-04-30 19:21 -19.47653 -44.11514 34028 ft 489 kts 209°
2026-04-30 19:22 -19.59612 -44.18383 34027 ft 489 kts 209°
2026-04-30 19:23 -19.77529 -44.28696 34036 ft 490 kts 210°
2026-04-30 19:24 -19.86506 -44.33873 34037 ft 489 kts 210°
2026-04-30 19:25 -20.01433 -44.42497 34043 ft 488 kts 210°
2026-04-30 19:26 -20.13349 -44.49428 34040 ft 487 kts 212°
2026-04-30 19:27 -20.21611 -44.55674 34032 ft 486 kts 218°
2026-04-30 19:28 -20.29769 -44.62098 34039 ft 486 kts 217°
2026-04-30 19:29 -20.40689 -44.70609 34039 ft 486 kts 218°
2026-04-30 19:30 -20.51608 -44.79136 34045 ft 486 kts 218°
2026-04-30 19:31 -20.62518 -44.87677 34040 ft 486 kts 218°
2026-04-30 19:31 -20.70647 -44.94052 34046 ft 485 kts 218°
2026-04-30 19:32 -20.76079 -44.98315 34038 ft 484 kts 218°
2026-04-30 19:32 -20.81358 -45.02457 34039 ft 483 kts 218°
2026-04-30 19:33 -20.86734 -45.06680 34039 ft 483 kts 218°
2026-04-30 19:33 -20.92141 -45.10931 34033 ft 482 kts 218°
2026-04-30 19:34 -20.97545 -45.15180 34035 ft 482 kts 218°
2026-04-30 19:35 -21.05641 -45.21556 34028 ft 482 kts 218°
2026-04-30 19:35 -21.11039 -45.25813 34028 ft 482 kts 218°
2026-04-30 19:36 -21.16441 -45.30076 34027 ft 482 kts 218°
2026-04-30 19:36 -21.24535 -45.36473 34028 ft 482 kts 218°
2026-04-30 19:37 -21.29926 -45.40738 34035 ft 482 kts 219°
2026-04-30 19:37 -21.35317 -45.45007 34029 ft 481 kts 219°
2026-04-30 19:38 -21.40696 -45.49271 34032 ft 480 kts 219°
2026-04-30 19:38 -21.46067 -45.53533 34029 ft 480 kts 219°
2026-04-30 19:39 -21.51437 -45.57793 34029 ft 480 kts 219°
2026-04-30 19:39 -21.56829 -45.62029 34027 ft 480 kts 219°
2026-04-30 19:40 -21.62223 -45.66258 34035 ft 480 kts 219°
2026-04-30 19:40 -21.67604 -45.70489 34027 ft 479 kts 219°
2026-04-30 19:41 -21.72978 -45.74721 34029 ft 479 kts 219°
2026-04-30 19:41 -21.78347 -45.78955 34039 ft 478 kts 219°
2026-04-30 19:42 -21.83717 -45.83193 34036 ft 478 kts 219°
2026-04-30 19:42 -21.88175 -45.86715 34040 ft 479 kts 219°
2026-04-30 19:43 -21.93529 -45.90948 33872 ft 475 kts 219°
2026-04-30 19:43 -21.96215 -45.93074 32831 ft 481 kts 219°
2026-04-30 19:44 -22.01590 -45.97330 30874 ft 481 kts 219°
2026-04-30 19:44 -22.04287 -45.99466 29941 ft 481 kts 219°
2026-04-30 19:44 -22.06765 -46.01430 29157 ft 477 kts 219°
2026-04-30 19:44 -22.09423 -46.03537 28364 ft 472 kts 219°
2026-04-30 19:45 -22.12050 -46.05622 27619 ft 467 kts 219°
2026-04-30 19:45 -22.14659 -46.07694 26885 ft 463 kts 219°
2026-04-30 19:45 -22.17246 -46.09747 26187 ft 459 kts 219°
2026-04-30 19:45 -22.19812 -46.11782 25477 ft 456 kts 219°
2026-04-30 19:46 -22.22360 -46.13802 24767 ft 454 kts 219°
2026-04-30 19:46 -22.24898 -46.15815 24054 ft 452 kts 219°
2026-04-30 19:46 -22.27424 -46.17820 23293 ft 449 kts 219°
2026-04-30 19:46 -22.29935 -46.19806 22538 ft 443 kts 217°
2026-04-30 19:47 -22.32643 -46.21371 21852 ft 443 kts 202°
2026-04-30 19:47 -22.34066 -46.21800 21605 ft 442 kts 194°
2026-04-30 19:47 -22.38078 -46.22379 20932 ft 432 kts 189°
2026-04-30 19:47 -22.40720 -46.22735 20488 ft 428 kts 190°
2026-04-30 19:48 -22.43671 -46.23159 19962 ft 426 kts 190°
2026-04-30 19:48 -22.46589 -46.23602 19467 ft 424 kts 191°
2026-04-30 19:48 -22.49504 -46.24058 18960 ft 422 kts 191°
2026-04-30 19:48 -22.52404 -46.24514 18453 ft 420 kts 191°
2026-04-30 19:49 -22.55288 -46.24966 17972 ft 416 kts 190°
2026-04-30 19:49 -22.60913 -46.25839 17500 ft 405 kts 190°
2026-04-30 19:49 -22.63716 -46.26275 17266 ft 408 kts 190°
2026-04-30 19:50 -22.66533 -46.26714 17036 ft 411 kts 190°
2026-04-30 19:50 -22.69362 -46.27153 16801 ft 410 kts 190°
2026-04-30 19:50 -22.72182 -46.27591 16556 ft 409 kts 190°
2026-04-30 19:50 -22.74995 -46.28030 16327 ft 407 kts 190°
2026-04-30 19:51 -22.77769 -46.28506 16094 ft 402 kts 194°
2026-04-30 19:51 -22.80354 -46.29598 15710 ft 395 kts 211°
2026-04-30 19:51 -22.82719 -46.31126 15345 ft 398 kts 212°
2026-04-30 19:51 -22.85097 -46.32664 14970 ft 397 kts 211°
2026-04-30 19:52 -22.87212 -46.34017 14613 ft 394 kts 211°
2026-04-30 19:52 -22.89565 -46.35504 14231 ft 391 kts 210°
2026-04-30 19:52 -22.91919 -46.36979 13849 ft 388 kts 210°
2026-04-30 19:52 -22.94243 -46.38428 13414 ft 382 kts 210°
2026-04-30 19:53 -22.96528 -46.39848 13014 ft 374 kts 210°
2026-04-30 19:53 -22.98759 -46.41233 12650 ft 366 kts 210°
2026-04-30 19:53 -23.00942 -46.42588 12294 ft 359 kts 210°
2026-04-30 19:53 -23.03095 -46.43925 11923 ft 354 kts 210°
2026-04-30 19:54 -23.05209 -46.45238 11610 ft 347 kts 211°
2026-04-30 19:54 -23.07292 -46.46533 11279 ft 341 kts 211°
2026-04-30 19:54 -23.09337 -46.47805 10952 ft 336 kts 211°
2026-04-30 19:54 -23.11354 -46.49061 10627 ft 332 kts 211°
2026-04-30 19:55 -23.13311 -46.50280 10303 ft 327 kts 211°
2026-04-30 19:55 -23.15224 -46.51471 9996 ft 308 kts 211°
2026-04-30 19:55 -23.17042 -46.52603 9746 ft 296 kts 212°
2026-04-30 19:55 -23.18801 -46.53694 9397 ft 286 kts 212°
2026-04-30 19:56 -23.20521 -46.54769 9145 ft 285 kts 211°
2026-04-30 19:56 -23.22205 -46.55898 8836 ft 283 kts 214°
2026-04-30 19:56 -23.23835 -46.57066 8525 ft 281 kts 215°
2026-04-30 19:56 -23.25473 -46.58241 8165 ft 281 kts 214°
2026-04-30 19:57 -23.27102 -46.59406 7902 ft 278 kts 214°
2026-04-30 19:57 -23.28705 -46.60550 7725 ft 275 kts 214°
2026-04-30 19:57 -23.30287 -46.61676 7630 ft 267 kts 215°
2026-04-30 19:57 -23.31833 -46.62773 7328 ft 261 kts 214°
2026-04-30 19:58 -23.33307 -46.63817 7134 ft 245 kts 215°
2026-04-30 19:58 -23.34712 -46.64814 6957 ft 238 kts 215°
2026-04-30 19:58 -23.36077 -46.65786 6797 ft 231 kts 215°
2026-04-30 19:58 -23.37402 -46.66727 6618 ft 226 kts 215°
2026-04-30 19:59 -23.38710 -46.67658 6469 ft 223 kts 217°
2026-04-30 19:59 -23.39985 -46.68571 6325 ft 220 kts 216°
2026-04-30 19:59 -23.42638 -46.70030 5980 ft 206 kts 196°
2026-04-30 20:00 -23.44004 -46.70413 5812 ft 205 kts 187°
2026-04-30 20:00 -23.45419 -46.70171 5664 ft 200 kts 165°
2026-04-30 20:00 -23.46674 -46.69705 5541 ft 189 kts 153°
2026-04-30 20:00 -23.47555 -46.68714 5343 ft 178 kts 123°
2026-04-30 20:01 -23.48664 -46.66257 5066 ft 181 kts 93°
2026-04-30 20:01 -23.48360 -46.64963 4976 ft 179 kts 68°
2026-04-30 20:01 -23.47946 -46.63687 4939 ft 180 kts 77°
2026-04-30 20:02 -23.47269 -46.61149 4757 ft 171 kts 75°
2026-04-30 20:02 -23.46946 -46.59967 4563 ft 155 kts 76°
2026-04-30 20:03 -23.46364 -46.57826 4198 ft 147 kts 79°
2026-04-30 20:03 -23.46068 -46.56732 3999 ft 150 kts 79°
2026-04-30 20:03 -23.45775 -46.55661 3814 ft 143 kts 76°
2026-04-30 20:03 -23.45496 -46.54634 3632 ft 145 kts 78°
2026-04-30 20:04 -23.45207 -46.53572 3464 ft 147 kts 76°
2026-04-30 20:04 -23.44916 -46.52505 3247 ft 147 kts 81°
2026-04-30 20:04 -23.44635 -46.51470 3049 ft 141 kts 78°
2026-04-30 20:05 -23.44050 -46.49365 2644 ft 145 kts 79°
2026-04-30 20:05 -23.43769 -46.48318 2476 ft 137 kts 77°
2026-04-30 20:05 -23.43383 -46.46860 2474 ft 57 kts 73°
2026-04-30 20:06 -23.43311 -46.46601 2476 ft 20 kts 73°
2026-04-30 20:06 -23.43271 -46.46459 2475 ft 20 kts 68°
2026-04-30 20:06 -23.43193 -46.46338 2476 ft 20 kts 46°
2026-04-30 20:06 -23.43093 -46.46235 2473 ft 20 kts 44°
2026-04-30 20:07 -23.43021 -46.46159 2473 ft 10 kts 41°
2026-04-30 20:07 -23.42950 -46.46142 2470 ft 11 kts 349°
2026-04-30 20:07 -23.42797 -46.46187 2473 ft 11 kts 344°
2026-04-30 20:08 -23.42720 -46.46211 2476 ft 12 kts 343°
2026-04-30 20:08 -23.42644 -46.46236 2474 ft 10 kts 343°
2026-04-30 20:08 -23.42623 -46.46301 2472 ft 11 kts 261°
2026-04-30 20:08 -23.42645 -46.46389 2470 ft 13 kts 253°
2026-04-30 20:09 -23.42671 -46.46485 2469 ft 13 kts 253°
2026-04-30 20:09 -23.42697 -46.46583 2468 ft 14 kts 253°
2026-04-30 20:09 -23.42750 -46.46778 2474 ft 14 kts 253°
2026-04-30 20:10 -23.42806 -46.46981 2474 ft 14 kts 253°
2026-04-30 20:10 -23.42834 -46.47087 2474 ft 15 kts 254°
2026-04-30 20:10 -23.42862 -46.47194 2470 ft 15 kts 254°
2026-04-30 20:11 -23.42926 -46.47428 2474 ft 16 kts 253°
2026-04-30 20:11 -23.42958 -46.47546 2471 ft 16 kts 253°
2026-04-30 20:11 -23.42989 -46.47664 2472 ft 16 kts 253°
2026-04-30 20:12 -23.43053 -46.47900 2470 ft 16 kts 253°
2026-04-30 20:12 -23.43079 -46.47994 2474 ft 9 kts 253°
2026-04-30 20:12 -23.43096 -46.48058 2475 ft 9 kts 253°
2026-04-30 20:13 -23.43084 -46.48116 2476 ft 9 kts 328°
2026-04-30 20:13 -23.43017 -46.48133 2473 ft 11 kts 353°
2026-04-30 20:13 -23.42937 -46.48141 2471 ft 12 kts 355°
2026-04-30 20:13 -23.42891 -46.48145 2473 ft 4 kts 355°
2026-04-30 20:14 -23.42865 -46.48141 2471 ft 4 kts 30°
2026-04-30 20:14 -23.42850 -46.48113 2471 ft 5 kts 70°
2026-04-30 20:14 -23.42846 -46.48089 2470 ft 2 kts 83°
2026-04-30 20:14 -23.42845 -46.48077 2470 ft 0 kts 84°
2026-04-30 20:15 -23.42844 -46.48072 2470 ft 1 kts 84°
2026-04-30 20:15 -23.42844 -46.48067 2470 ft 0 kts 84°